{"data":{"norad_id":68303,"intl_designator":"2026-057K","name":"STARLINK-36300","alt_names":[],"object_type":"PAYLOAD","status":"ACTIVE","operator":null,"country":"US","launch_date":"2026-03-20","launch_site_code":"AFWTR","launch_vehicle":null,"mission":null,"orbit_class":"UNKNOWN","rcs_meters":null,"size_class":null,"mass_kg":null,"dimensions":null,"purposes":["comms"],"wikipedia_slug":null,"has_3d_model":false,"image_url":null,"decayed_at":null,"tle_current":{"epoch":"2026-09-19T15:39:36.067392Z","epoch_age_seconds":121671,"freshness":"FRESH","line1":"1 68303U 26057K   26262.65250078  .00022361  00000+0  69340-3 0  9999","line2":"2 68303  97.2852  28.0654 0001142  80.5548 279.5824 15.33423018 28386","mean_motion":15.33423018,"eccentricity":0.0001142,"inclination_deg":97.2852,"raan_deg":28.0654,"arg_perigee_deg":80.5548,"mean_anomaly_deg":279.5824,"bstar":0.0006934,"rev_number":2838,"period_min":93.907550825613,"perigee_km":464.82702248075,"apogee_km":466.39013397082,"semimajor_km":6843.7455782258,"source":"CELESTRAK","updated_at":"2026-09-20T09:00:43.855403Z"}}}